Location: Lombard
(41.8800°N, 88.0080°W)
Time: 23:26:02
(UTC-05:00)

A-11 Canister half - Pass Details

Date: 30 January 2023
Orbit: 1512 x 1687 km, 47.2° (Epoch: 20 March)

Event Time Altitude Azimuth Distance (km) Brightness Sun altitude
Rises 09:42:01 0° 191° (S) 4,858 12.2 21.9°
Reaches altitude 10° 09:45:57 10° 178° (S) 3,848 12.1 22.4°
Maximum altitude 09:53:17 25° 129° (SE) 2,816 12.4 23.2°
Drops below altitude 10° 10:00:26 10° 79° (E) 3,754 11.4 23.9°
Sets 10:04:10 0° 67° (ENE) 4,716 11.7 24.3°
